{"data":{"norad_id":60938,"intl_designator":"2024-155Q","name":"STARLINK-32262","alt_names":[],"object_type":"PAYLOAD","status":"ACTIVE","operator":null,"country":"US","launch_date":"2024-08-31","launch_site_code":"AFWTR","launch_vehicle":null,"mission":null,"orbit_class":"UNKNOWN","rcs_meters":null,"size_class":null,"mass_kg":null,"dimensions":null,"purposes":["comms"],"wikipedia_slug":null,"has_3d_model":false,"image_url":null,"decayed_at":null,"tle_current":{"epoch":"2026-05-25T02:29:00.257280Z","epoch_age_seconds":59980,"freshness":"FRESH","line1":"1 60938U 24155Q   26145.10347520  .00145428  00000+0  83226-3 0  9990","line2":"2 60938  53.1392  96.1538 0008948  38.3330 321.8325 15.77869085 98627","mean_motion":15.77869085,"eccentricity":0.0008948,"inclination_deg":53.1392,"raan_deg":96.1538,"arg_perigee_deg":38.333,"mean_anomaly_deg":321.8325,"bstar":0.00083226,"rev_number":9862,"period_min":91.262324212404,"perigee_km":330.47100182843,"apogee_km":342.48747905232,"semimajor_km":6714.6162404404,"source":"CELESTRAK","updated_at":"2026-05-25T13:38:19.320419Z"}}}